Location: ??????
(56.0120°N, 39.1740°E)
Time: 01:27:09
(UTC+00:00)

Cosmos 1766 - Pass Details

Date: 14 April 2026
Orbit: 402 x 407 km, 82.5° (Epoch: 20 May)

Event Time Altitude Azimuth Distance (km) Brightness Sun altitude
Rises 23:47:37 0° 347° (NNW) 2,344 7.1 -17.8°
Reaches altitude 10° 23:49:38 10° 346° (NNW) 1,480 6.0 -17.6°
Maximum altitude 23:52:51 82° 259° (W) 419 2.6 -17.4°
Enters shadow 23:53:40 47° 178° (S) 552 3.0 -17.3°
